Regional Weather Roundup
Issued by NWS

Home | Current Version | Previous Version | Graphics & Text | Print | Product List | Glossary On
Versions: 1 2 3 4 5 6 7 8 9 10 11 12 13 14 15 16 17 18 19 20 21 22 23 24 25 26 27 28 29 30 31 32 33 34 35 36 37 38 39 40 41 42 43 44 45 46 47 48 49 50
000
ASUS44 KMEG 050800
RWRTN
TENNESSEE HOURLY STATE WEATHER ROUNDUP
NATIONAL WEATHER SERVICE MEMPHIS TN
300 AM CDT SAT SEP 05 2015

TNZ002-004-019-021-049-052-054-088>092-050900-
WEST TENNESSEE

CITY           SKY/WX    TMP DP  RH WIND       PRES   REMARKS
MEMPHIS INTL   CLEAR     79  72  79 E5        30.00F
NWS MEMPHIS      N/A     74 N/A N/A MISG        N/A
JACKSON        CLEAR     70  68  93 CALM      30.02S FOG
DYERSBURG      CLEAR     72  70  94 CALM      30.03S
UNION CITY     CLEAR    N/A N/A N/A CALM      30.01F
PARIS          CLEAR     68  66  94 CALM      30.04S
LEXINGTON      CLEAR     66  66 100 CALM      30.02S
$$

TNZ008-025-027-028-033-062-065-066-050900-
NORTH MIDDLE TENNESSEE

CITY           SKY/WX    TMP DP  RH WIND       PRES   REMARKS
NASHVILLE      CLEAR     72  67  84 CALM      30.04S
CLARKSVILLE    CLEAR     69  66  90 CALM      30.04S FOG
COOKEVILLE     MOCLDY    64  64 100 CALM      30.06S VSB 1
CROSSVILLE     CLEAR     67  64  90 CALM      30.11F FOG
$$

TNZ061-075-076-078-094-096-097-050900-
SOUTH MIDDLE TENNESSEE

CITY           SKY/WX    TMP DP  RH WIND       PRES   REMARKS
FAYETTEVILLE   CLEAR     70  70 100 CALM      30.05S
TULLAHOMA      CLEAR     68  64  88 CALM      30.07S
WINCHESTER     CLEAR     66  66 100 CALM      30.05S
COLUMBIA       CLEAR    N/A N/A N/A CALM      30.03S
SHELBYVILLE    CLEAR     68  68 100 CALM      30.05S
$$

TNZ017-018-042-046-047-050900-
NORTHEAST TENNESSEE

CITY           SKY/WX    TMP DP  RH WIND       PRES   REMARKS
TRI CITIES     CLEAR     66  63  90 CALM      30.13S
$$

TNZ012-013-036-069-073-074-050900-
CENTRAL EAST TENNESSEE

CITY           SKY/WX    TMP DP  RH WIND       PRES   REMARKS
KNOXVILLE      PTCLDY    70  67  90 CALM      30.06S
OAK RIDGE      CLEAR     71  67  87 E5        30.07F
GATLINBURG     SUNNY     66  63  88 CALM      30.07R
$$

TNZ083-085-099-050900-
SOUTHEAST TENNESSEE

CITY           SKY/WX    TMP DP  RH WIND       PRES   REMARKS
CHATTANOOGA    PTCLDY    72  69  90 SW5       30.05R
$$

SKY/WX REPORTED AS FAIR MEANS FEW OR NO CLOUDS BELOW
12 THOUSAND FEET.




USA.gov is the U.S. government's official web portal to all federal, state and local government web resources and services.